Flag for Vietnam Weather past 2 weeks in Hanoi, Vietnam

Now
82 °F

Sunny.


Feels Like: 89 °F
Forecast: 72 / 87 °F
Wind: 5 mph from Northwest

Location: Ha Noi Airport

Current Time: Sep 21, 2014 at 5:08:41 PM

Latest Report: Sep 21, 2014 at 4:30 PM


Visibility: 10 mi

Pressure: 29.71 "Hg

Humidity: 79%

Dew point: 75 °F

Location of HanoiLocation

Historic Weather in Hanoi — Graph

°F

Hanoi temperature yesterday

Maximum temperature yesterday: 90 °F (at 4:00 PM)
Minimum temperature yesterday: 77 °F (at 9:30 AM)
Average temperature yesterday: 83 °F

Past Weeks' High & Low Weather Summary

 TemperatureHumidityPressure
High93 °F (Sep 7, 12:00 PM)100% (Sep 7, 4:30 AM)29.89 "Hg (Sep 7, 4:30 AM)
Low75 °F (Sep 9, 8:30 AM)53% (Sep 7, 3:30 PM)29.12 "Hg (Sep 17, 12:30 AM)
Average84 °F87%29.68 "Hg
* Reported Sep 6 4:00 PM — Sep 21 4:00 PM, Hanoi, Weather by CustomWeather, © 2014

Note: Actual official high and low records may vary slightly from our data, if they occured in-between our weather recording intervals... More about our weather records

Advertising

Hanoi weather history for previous 24 hours

 ConditionsComfort  
Time TempWeatherWind HumidityBarometerVisibility
4:00 PM
Sep 21
82 °FPassing clouds.6 mph79%29.71 "HgN/A
3:30 PM82 °FSunny.6 mph79%29.71 "Hg10 mi
3:00 PM82 °FSunny.8 mph79%29.71 "Hg10 mi
2:30 PM84 °FSunny.8 mph79%29.71 "Hg10 mi
2:00 PM82 °FPassing clouds.8 mph79%29.74 "HgN/A
1:30 PM82 °FPartly sunny.10 mph79%29.74 "HgN/A
1:00 PM82 °FPartly sunny.12 mph84%29.77 "HgN/A
12:30 PM81 °FPartly sunny.12 mph89%29.77 "HgN/A
12:00 PM82 °FPartly sunny.12 mph84%29.80 "HgN/A
11:30 AM82 °FPartly sunny.9 mph84%29.80 "HgN/A
11:00 AM82 °FPartly sunny.9 mph89%29.80 "HgN/A
10:30 AM81 °FPartly sunny.9 mph89%29.80 "HgN/A
10:00 AM81 °FPartly sunny.8 mph84%29.80 "HgN/A
9:30 AM81 °FPartly sunny.5 mph84%29.83 "HgN/A
9:00 AM77 °FPartly sunny.5 mph94%29.83 "HgN/A
8:30 AM77 °FPartly sunny.6 mph89%29.80 "HgN/A
8:00 AM75 °FPartly sunny.10 mph94%29.80 "HgN/A
7:30 AM75 °FLight rain. Partly sunny.8 mph94%29.80 "Hg6 mi
7:00 AM75 °FLight rain. Broken clouds.8 mph100%29.77 "Hg4 mi
6:30 AM75 °FRain. Partly sunny.7 mph100%29.77 "Hg2 mi
6:00 AM75 °FRain. Partly sunny.5 mph100%N/A2 mi
5:30 AM75 °FRain. Passing clouds.8 mph100%29.77 "Hg2 mi
5:00 AM77 °FPassing clouds.5 mph100%29.77 "Hg4 mi
4:30 AM77 °FPassing clouds.3 mph100%29.74 "Hg5 mi
4:00 AM79 °FPassing clouds.3 mph94%29.74 "HgN/A
3:30 AM79 °FPassing clouds.5 mph94%29.74 "HgN/A
3:00 AM79 °FPassing clouds.5 mph100%29.71 "Hg5 mi
2:30 AM79 °FPassing clouds.3 mph94%29.71 "Hg5 mi
2:00 AM79 °FPassing clouds.6 mph94%29.74 "HgN/A
1:30 AM81 °FPartly cloudy.8 mph94%29.71 "HgN/A
1:00 AM81 °FRain. Partly cloudy.7 mph100%N/A3 mi
12:30 AM81 °FLight rain. Partly cloudy.7 mph100%29.71 "Hg5 mi
8:30 PM
Sep 20
81 °FPassing clouds.7 mph94%29.71 "HgN/A
8:00 PM81 °FPassing clouds.8 mph94%29.71 "HgN/A
7:30 PM81 °FPassing clouds.7 mph94%29.71 "HgN/A
7:00 PM82 °FPassing clouds.7 mph94%29.68 "HgN/A
6:30 PM82 °FPassing clouds.7 mph94%29.68 "HgN/A
6:00 PM82 °FPassing clouds.7 mph89%29.65 "HgN/A
5:30 PM84 °FPartly sunny.9 mph89%29.65 "HgN/A
5:00 PM86 °FPartly sunny.10 mph84%29.62 "HgN/A
Weather by CustomWeather, © 2014

See weather overviewHow to use our weather pages